Theta_e
313 313 314 316 317 317 320 320 319 320 320 322 322 322 322 322 322 321 320 319 319 320 323 327 330 332 332 329 339 339 348 354 354 354 352 354 354 355 353 353 353 352 348 349
314 314 315 316 317 318 319 321 321 321 321 322 322 323 323 323 322 321 320 320 320 320 324 330 331 331 331 337 336 335 347 353 354 346 348 349 351 349 351 353 353 351 349 349
315 315 315 316 318 319 320 320 321 321 322 322 322 323 323 322 322 321 321 321 321 321 325 328 332 332 332 336 338 336 339 347 350 350 352 353 353 351 349 347 344 343 340 338
315 316 315 318 319 320 321 320 319 320 322 323 324 324 325 324 322 321 323 323 324 324 325 326 328 332 330 331 330 328 327 346 352 352 348 348 345 342 336 331 329 331 331 328
316 317 318 318 318 319 320 319 319 320 321 322 323 324 323 324 323 323 323 324 324 324 324 326 328 330 331 333 333 333 337 349 349 349 348 344 337 333 329 326 333 330 333 332
318 319 319 319 319 319 319 320 320 321 321 323 323 324 323 325 324 323 323 323 323 324 324 325 327 329 331 336 339 343 342 337 336 335 336 336 335 333 329 330 330 328 327 328
318 319 319 319 319 319 320 321 323 322 322 322 322 323 324 326 323 324 324 323 324 326 328 330 331 331 333 337 336 334 332 331 330 329 329 330 330 330 329 328 325 327 325 323
319 320 320 318 319 319 319 321 323 322 322 321 321 325 324 325 325 325 326 326 326 328 330 331 332 332 333 333 332 329 328 326 326 325 324 325 324 322 322 322 323 323 322 321
321 322 319 319 318 320 320 322 321 323 323 325 326 324 327 326 325 324 326 328 329 330 331 331 331 329 329 328 327 327 325 324 324 323 323 322 322 322 322 321 321 320 320 319
320 322 320 318 318 319 320 321 324 322 326 330 328 328 326 326 325 324 325 328 330 331 331 331 330 328 327 325 324 324 323 322 321 320 319 319 319 319 319 319 319 319 319 319
320 322 321 319 319 320 320 322 323 323 323 327 330 327 327 329 325 325 325 328 329 330 329 328 328 326 324 323 322 321 320 320 319 318 318 318 318 317 317 317 317 317 318 318
320 323 326 321 319 319 321 321 324 327 329 328 326 327 326 325 326 326 326 329 328 327 327 326 325 322 321 321 320 320 319 318 317 316 316 316 316 316 316 317 317 317 317 317
324 323 333 330 327 323 323 324 322 324 330 329 334 329 326 325 325 325 326 327 327 326 325 323 322 322 320 319 318 317 316 316 315 315 314 314 315 315 316 316 316 316 316 316
326 323 325 332 329 325 324 326 327 328 331 331 326 325 326 325 324 325 325 326 326 325 323 322 321 320 319 317 316 315 314 314 313 314 313 313 314 314 315 315 315 315 315 315
325 325 326 327 326 327 326 322 324 326 325 328 326 328 327 328 326 324 325 324 323 322 322 321 320 318 317 315 314 313 313 312 312 312 312 312 313 313 313 313 313 312 312 312
327 330 330 331 327 325 326 326 326 326 326 325 324 325 325 324 324 323 323 323 323 322 321 319 318 316 315 314 313 312 312 312 312 311 312 312 312 312 313 313 312 311 311 311
330 332 332 330 324 325 331 324 323 325 324 322 322 321 322 323 323 323 324 322 321 321 319 318 316 315 314 313 312 312 311 311 311 310 311 311 311 311 311 310 310 310 310 310
328 329 327 329 327 331 323 320 320 321 320 320 320 320 321 321 322 321 322 321 320 319 317 316 314 313 312 311 311 311 310 310 309 309 309 308 308 308 307 307 308 309 309 310
326 326 328 330 325 320 319 319 317 316 316 318 319 319 318 321 322 321 320 319 318 316 314 312 312 311 311 311 309 309 309 309 308 308 307 305 304 304 303 303 305 307 308 308
324 325 322 320 323 320 322 321 321 321 328 321 321 321 321 322 323 321 317 316 315 313 312 311 310 310 310 308 306 306 306 305 305 304 302 302 301 301 301 300 302 305 306 307
322 320 321 320 322 321 321 320 320 324 327 321 321 322 322 323 321 317 315 313 311 310 310 309 309 308 306 304 303 303 302 302 300 299 299 299 299 299 298 299 302 304 305 306
320 322 322 321 323 330 319 320 324 326 324 322 320 320 319 318 316 314 312 311 310 309 308 307 306 306 303 301 300 300 299 298 296 296 297 297 297 298 298 301 302 303 304 305
323 321 322 321 324 323 323 324 323 324 321 319 319 318 317 316 314 313 311 309 308 306 305 305 306 304 302 299 298 297 296 295 294 295 296 296 296 297 297 301 302 303 304 306
320 320 325 323 321 321 322 320 320 320 319 317 317 316 315 313 311 309 307 306 305 304 304 305 305 304 302 297 294 293 293 293 294 294 295 295 295 296 297 300 301 301 302 302
321 319 320 322 321 321 320 320 319 318 317 315 313 312 311 309 306 305 305 304 303 303 303 303 303 302 302 297 294 292 291 291 293 293 294 295 295 296 297 298 298 298 300 301
318 319 322 323 321 322 321 319 317 317 315 312 311 309 306 304 303 304 304 303 302 302 301 301 300 299 299 298 296 293 292 291 292 292 293 293 295 295 295 296 298 298 300 300
Wind_Speed
21 18 21 25 23 22 20 19 19 15 12 7 12 14 16 14 13 13 14 18 19 22 23 26 24 16 14 15 17 14 10 7 10 11 13 12 11 11 9 7 8 8 8 5
16 23 24 23 23 21 20 13 10 8 10 8 12 14 14 12 8 11 14 14 19 22 22 19 17 16 22 9 12 11 11 12 9 8 14 9 11 8 8 7 8 9 6 8
21 19 26 23 19 19 18 17 16 14 15 13 13 17 18 15 10 10 9 14 16 19 21 22 22 21 17 11 15 9 5 2 6 8 5 6 5 6 8 8 9 7 8 8
24 24 25 19 21 18 18 18 15 12 11 12 11 13 10 12 11 11 13 13 15 17 16 14 16 22 22 23 21 14 8 9 11 10 11 10 9 6 8 8 8 7 7 6
25 24 16 23 20 19 16 12 15 16 15 15 17 9 10 10 11 13 14 15 14 13 14 14 17 19 17 15 16 21 21 15 13 10 11 11 11 11 9 8 7 5 6 6
25 21 19 16 19 18 14 13 11 12 13 15 19 15 12 6 8 10 15 15 14 8 9 17 11 13 17 14 14 18 20 18 13 10 8 6 9 5 6 3 3 6 8 5
23 26 20 17 20 18 15 11 10 12 13 14 18 16 5 12 4 4 4 13 9 5 6 13 11 10 13 21 19 19 18 17 15 12 9 8 7 6 2 1 4 4 6 8
20 23 24 16 21 22 23 18 12 17 14 15 19 10 3 14 9 6 8 6 9 11 12 14 15 15 20 19 19 19 19 18 16 13 9 5 4 1 1 2 4 7 10 13
19 24 26 22 19 20 19 20 18 19 13 9 8 9 13 13 10 10 11 10 11 12 12 16 16 18 19 19 15 14 14 13 11 10 6 3 1 1 3 6 8 10 11 14
23 17 21 24 21 22 21 19 17 12 13 15 12 13 11 19 16 12 12 10 11 14 15 14 14 16 16 14 13 11 10 9 7 5 2 1 3 5 6 9 11 14 16 17
23 12 17 15 19 23 18 16 14 13 13 10 10 8 13 9 6 12 12 13 13 14 14 12 13 15 15 14 12 9 7 5 4 1 1 4 6 9 11 13 14 16 17 19
20 12 9 24 20 23 21 20 18 10 11 10 11 2 10 7 7 11 14 16 13 14 15 14 12 14 13 11 9 8 4 1 1 4 6 8 10 12 13 15 16 17 19 20
24 11 12 2 10 11 16 16 19 11 4 10 6 4 11 10 4 6 10 16 15 13 13 12 10 8 8 6 3 3 3 4 6 7 10 11 13 15 17 18 19 20 21 22
22 17 17 12 6 16 19 19 24 11 2 10 10 15 10 13 11 4 4 10 11 9 10 9 9 8 8 4 4 5 6 7 9 10 11 13 14 16 18 19 20 20 21 22
15 20 15 6 10 4 8 18 7 15 8 9 8 17 14 20 15 10 9 10 12 11 10 8 7 6 5 4 5 7 8 9 11 13 14 15 17 19 19 19 19 21 21 21
3 12 11 14 14 7 5 9 9 11 13 13 12 5 13 11 5 7 11 13 13 11 9 7 5 4 3 4 6 10 11 12 13 15 16 17 19 20 20 20 20 21 22 21
8 8 12 9 9 6 10 15 15 13 14 9 11 9 8 6 8 9 12 7 6 7 5 4 4 5 6 9 10 12 13 14 15 17 18 19 19 20 20 19 20 21 20 20
8 9 7 6 12 10 8 4 2 11 10 10 9 10 7 1 8 6 5 9 10 6 4 4 6 6 7 9 10 12 14 15 16 17 17 18 18 19 20 20 22 21 21 20
7 5 1 6 11 9 7 4 5 7 8 1 6 5 6 11 17 14 13 14 11 5 3 6 7 7 8 10 12 14 15 15 16 17 17 18 19 20 21 21 22 22 20 20
19 11 4 2 8 5 11 8 1 1 7 4 4 2 10 14 8 10 9 8 6 5 7 7 8 8 11 13 15 16 16 17 16 17 19 20 20 20 21 22 23 22 22 23
9 6 7 6 4 7 12 6 6 11 5 6 13 13 16 13 10 9 9 8 7 7 9 9 11 13 13 15 16 16 16 16 17 20 21 21 20 21 22 23 22 22 22 23
11 6 7 8 4 4 7 6 2 8 11 13 14 13 15 15 13 11 8 7 7 7 8 10 12 14 14 17 18 17 17 19 20 21 22 22 21 21 21 22 22 22 22 22
7 6 4 3 4 8 8 10 10 8 12 12 12 13 12 12 10 8 7 7 7 8 8 9 12 14 15 18 19 18 18 19 21 21 21 21 21 20 21 21 20 20 19 18
5 5 3 8 8 11 11 10 13 14 15 14 11 10 10 10 10 9 7 7 7 8 9 10 11 13 12 14 16 18 17 18 19 21 21 20 19 19 18 17 17 18 19 18
2 6 6 8 13 13 9 15 16 16 14 13 13 12 11 11 9 9 8 7 8 8 9 11 11 13 13 12 16 21 20 18 19 20 18 18 17 18 18 17 19 20 21 19
4 4 4 4 10 8 12 11 17 15 15 14 13 13 12 11 10 9 8 9 8 9 10 11 12 14 14 15 15 17 21 20 20 19 17 19 19 17 17 18 20 21 19 21
Wind_Direction
197 202 209 207 215 230 239 228 223 205 223 208 247 260 258 258 251 238 231 229 233 228 214 198 213 147 168 148 119 119 131 162 201 209 192 186 187 213 223 236 216 213 216 274
182 213 213 224 215 228 248 245 227 241 236 233 270 260 260 256 250 245 245 231 232 219 212 199 201 212 212 152 144 138 131 152 194 251 245 183 180 186 207 199 214 206 219 208
207 213 221 212 218 215 228 226 226 240 211 213 267 260 247 239 226 216 245 227 217 202 208 219 194 190 163 164 143 118 80 276 211 227 228 166 191 150 133 158 153 170 163 186
221 231 196 209 218 209 217 219 246 248 253 251 275 253 194 211 188 209 211 220 224 192 209 210 195 189 211 199 223 258 262 195 198 202 216 200 211 189 187 169 176 168 181 190
212 233 201 207 210 208 229 212 222 224 231 256 255 235 287 166 199 199 212 212 220 222 219 192 177 168 176 172 187 176 188 175 162 179 212 198 197 170 173 176 139 181 194 216
225 209 213 207 210 212 218 230 238 244 243 237 243 252 235 174 230 192 191 206 213 207 207 183 165 161 161 152 157 156 148 141 141 128 134 148 86 76 159 158 191 220 233 229
213 235 204 219 213 195 205 214 213 212 219 235 232 226 226 155 235 110 235 179 176 169 160 118 139 169 165 146 150 147 139 132 127 120 109 93 94 107 139 313 269 293 280 282
217 214 206 204 220 209 211 209 230 209 210 225 224 227 247 141 109 101 110 146 151 172 151 142 141 141 144 146 153 147 145 136 131 126 113 107 86 142 287 324 295 282 289 287
206 225 199 202 218 227 192 214 231 264 294 266 328 228 126 157 176 155 141 150 159 144 146 136 134 142 140 140 145 145 132 128 121 109 110 99 82 308 298 291 288 286 287 288
234 220 215 194 209 215 241 204 208 234 238 253 178 223 273 170 170 173 156 164 144 137 131 132 130 125 125 133 130 127 124 113 109 109 128 230 301 305 300 297 294 296 291 292
226 263 208 194 200 206 202 220 233 229 232 234 261 214 94 9 178 159 165 149 153 138 136 144 140 138 146 145 138 130 124 123 123 152 298 312 318 306 303 294 290 289 289 288
220 234 215 205 189 219 200 208 223 200 218 276 267 139 297 150 289 172 153 140 151 160 149 142 141 152 149 143 133 124 105 31 343 320 312 308 301 302 297 291 292 291 288 286
207 212 186 62 283 211 194 222 224 225 16 204 235 148 354 0 318 168 151 149 154 146 139 138 140 134 113 98 71 37 4 346 323 322 314 315 308 301 299 297 294 290 288 287
202 210 218 205 168 191 207 187 199 169 116 229 223 249 235 272 263 273 205 139 123 150 138 146 134 114 91 60 18 346 338 332 318 315 309 300 296 294 292 290 288 285 285 285
207 209 225 94 160 119 232 224 216 248 222 255 239 192 223 245 189 165 126 146 137 138 156 140 118 95 83 42 351 324 333 321 317 311 305 301 298 293 291 290 291 291 289 288
124 197 253 138 176 175 236 225 244 232 251 256 258 188 280 154 107 104 151 168 165 159 136 110 100 76 31 354 345 333 324 322 315 306 306 304 301 298 294 293 293 289 286 285
175 163 196 198 170 168 220 220 223 236 216 237 250 249 209 197 162 148 174 163 164 138 102 79 42 28 8 344 348 322 323 319 315 312 311 307 303 298 295 294 291 289 285 284
163 172 179 164 164 192 109 67 266 246 227 238 239 276 288 243 173 109 124 128 91 85 69 43 24 3 350 336 328 326 322 317 316 312 310 308 304 300 297 295 291 287 284 285
220 110 269 174 181 103 137 159 186 209 209 240 277 241 219 98 94 75 59 66 74 64 32 29 15 358 343 338 337 326 320 319 315 312 312 308 304 299 296 293 291 286 287 290
173 214 169 201 186 209 103 113 76 231 141 124 235 109 132 144 175 110 98 93 100 68 50 22 8 359 358 348 338 328 325 323 319 317 312 307 303 297 294 292 291 288 292 287
166 177 170 156 184 98 111 120 196 214 118 119 83 67 65 89 101 102 116 101 87 67 57 25 25 16 359 349 338 327 324 322 322 318 313 309 303 298 294 291 288 285 285 285
152 148 196 161 170 159 116 168 273 130 117 96 96 100 108 116 126 123 107 87 67 56 38 35 22 15 4 355 343 330 326 327 324 319 313 309 308 301 296 293 292 289 287 288
159 164 180 136 105 108 77 101 100 97 102 104 107 106 110 108 104 100 90 73 67 43 26 19 20 10 3 357 350 335 329 328 324 316 314 313 310 305 300 297 294 293 291 293
98 113 109 141 145 122 124 122 97 92 88 90 105 111 100 103 100 89 71 63 55 43 27 11 8 10 5 3 357 344 329 325 324 320 318 316 314 314 308 304 302 303 301 298
44 160 161 123 120 117 118 111 111 107 109 110 100 96 97 94 84 85 81 66 52 41 27 15 10 1 15 356 350 355 348 331 325 327 324 323 322 318 316 311 305 301 294 293
176 124 150 168 154 119 135 118 118 125 115 113 107 99 89 88 85 84 77 63 46 40 24 18 12 7 2 357 349 345 351 345 340 336 336 333 328 327 324 322 319 315 309 310